RH
54 54 60 63 64 66 61 67 71 77 73 75 73 69 68 66 66 67 68 68 75 82 80 76 78 78 79
63 63 67 69 72 71 71 71 74 74 81 74 71 68 69 70 73 72 70 80 71 68 69 70 72 64 76
74 70 72 72 75 79 84 83 76 78 71 69 69 72 77 77 75 73 73 73 72 72 72 70 67 79 75
73 77 75 75 80 85 83 76 77 74 72 76 77 79 77 76 78 78 79 78 78 78 76 74 80 77 75
78 81 87 85 79 80 84 80 78 77 76 78 77 83 85 83 80 80 82 84 81 81 80 80 85 82 83
78 90 88 83 84 86 84 87 86 76 84 89 83 82 82 81 83 84 82 79 76 79 80 82 85 82 83
76 80 88 84 83 86 91 96 94 86 86 85 81 83 80 80 79 81 81 81 81 80 79 77 81 81 85
80 80 79 83 96 98 95 87 90 85 82 87 79 81 81 81 82 83 85 85 84 80 76 75 77 80 79
72 74 77 78 76 77 88 93 88 82 81 87 85 86 84 84 72 63 80 79 76 76 78 80 81 81 84
78 76 64 63 79 81 84 96 95 90 70 81 87 93 84 68 68 66 73 77 82 85 86 84 83 82 89
66 68 73 79 85 87 93 100 98 94 86 95 93 95 94 91 83 82 83 82 78 82 87 89 90 89 95
83 89 93 93 89 94 93 97 99 100 100 100 97 99 95 91 87 77 78 82 87 92 91 92 97 93 89
96 95 97 96 94 100 96 94 95 87 92 92 100 99 99 94 92 89 88 83 86 92 94 94 93 97 100
97 100 100 100 100 100 100 100 100 95 84 89 93 95 98 98 97 93 87 92 87 92 94 96 97 97 98
100 100 100 100 100 99 100 100 98 94 93 88 89 94 98 100 96 92 92 92 91 93 96 96 94 94 94
100 100 100 100 100 99 99 100 98 94 95 93 95 96 90 84 92 96 94 95 92 94 99 98 92 86 88
100 100 100 99 96 100 99 98 95 94 93 93 97 96 94 89 68 70 92 98 96 92 91 91 93 89 89
Wind_Speed
20 25 25 27 29 29 30 30 27 24 28 26 27 27 27 29 30 31 32 33 33 32 34 35 35 36 36
20 24 25 27 30 31 31 29 28 29 27 27 28 28 29 29 30 29 30 31 32 34 34 35 35 37 36
20 24 25 28 30 29 28 29 30 27 28 28 28 29 29 27 28 30 31 30 31 33 34 34 35 34 35
22 22 24 29 25 26 25 26 28 30 32 30 28 25 28 30 31 31 31 31 32 32 32 33 33 34 35
19 20 18 19 22 25 25 28 29 30 32 28 27 30 33 32 32 30 30 30 30 32 34 35 34 35 35
18 15 19 23 24 25 25 24 11 22 18 28 29 30 31 33 32 29 32 33 33 34 35 35 33 34 34
23 22 25 27 31 30 27 22 21 32 30 29 28 32 31 32 31 33 35 35 33 31 32 32 32 32 32
24 29 31 29 25 25 25 27 28 30 27 19 27 31 32 32 33 34 32 30 29 28 29 31 33 34 35
24 25 25 26 28 27 23 19 20 25 28 24 19 26 29 35 28 25 26 27 29 32 35 34 33 33 34
21 27 30 28 23 20 23 20 21 15 13 8 22 20 9 21 22 25 35 33 33 33 32 34 33 32 31
28 27 28 26 25 25 24 23 23 25 31 25 20 24 19 22 21 28 32 37 37 35 33 31 30 29 29
20 21 22 27 30 30 30 29 29 34 38 32 22 25 26 24 19 27 29 33 34 36 34 33 28 27 29
19 22 24 29 32 30 31 31 33 36 34 31 30 32 29 28 25 33 33 29 35 34 33 32 33 28 27
22 25 27 26 28 27 27 28 28 32 34 29 26 29 31 30 29 32 34 21 31 33 33 32 31 29 31
21 23 25 25 27 28 26 26 22 27 31 35 29 28 32 33 29 35 32 32 33 32 29 32 31 31 32
22 23 24 25 27 27 24 23 23 26 27 30 30 29 29 27 29 34 35 31 34 33 29 27 28 30 32
24 26 27 25 25 25 25 24 24 25 28 29 26 21 12 14 27 23 27 29 31 31 30 29 29 33 32
Wind_Direction
287 303 309 315 318 319 319 316 310 303 300 297 295 293 291 291 289 288 286 284 284 283 283 282 279 278 277
288 302 306 315 316 316 315 312 305 304 299 296 294 292 291 289 289 287 285 287 286 283 282 281 280 278 276
286 298 305 314 316 309 305 305 304 299 298 296 294 293 293 292 291 289 289 286 285 283 281 279 278 276 275
290 292 302 312 307 302 304 302 299 299 295 292 296 294 293 294 292 289 287 285 285 282 279 276 276 275 273
287 291 293 296 301 304 297 299 296 295 296 296 304 301 295 293 291 288 287 286 284 282 281 279 277 274 272
292 286 287 298 302 297 293 294 303 309 300 297 299 292 288 287 289 289 286 284 284 283 280 277 275 273 273
296 290 293 300 298 291 286 282 287 295 298 294 297 290 289 288 289 287 286 286 285 283 280 278 276 274 272
296 298 296 295 287 290 298 297 293 293 294 288 296 286 288 287 288 288 286 285 284 283 282 281 280 279 275
297 295 295 296 297 300 295 297 295 295 296 289 285 291 293 288 293 289 283 283 283 282 284 282 280 277 274
305 302 304 305 300 291 290 282 286 297 303 283 299 306 301 290 289 287 288 287 286 284 283 281 279 277 273
310 310 312 311 308 306 298 283 280 274 280 293 292 290 277 288 288 288 286 287 286 286 283 279 276 271 270
311 307 306 308 309 307 307 300 291 279 290 287 276 277 278 282 286 290 287 286 283 281 281 284 277 271 268
306 303 304 307 311 305 309 309 305 304 300 297 276 274 272 274 280 286 292 290 286 279 277 274 274 271 269
302 304 309 306 301 304 301 303 299 298 305 298 288 281 271 272 276 280 282 277 283 281 278 277 275 270 263
308 309 306 304 302 306 300 297 287 294 300 305 303 291 278 271 274 275 275 277 277 276 277 276 275 270 266
312 305 300 301 302 303 300 295 291 294 295 297 300 301 295 284 260 261 274 274 279 281 275 271 275 274 268
311 307 302 299 304 301 301 297 295 293 292 294 293 291 296 295 298 286 276 280 284 284 279 273 271 275 272